Flag for Malaysia Weather past 2 weeks in Kuching, Malaysia

Now
79 °F

Light rain. Partly cloudy.


Feels Like: 83 °F
Forecast: 75 / 89 °F
Wind: 2 mph from Southwest

Location: Kuching Airport

Current Time: Dec 18, 2014 at 11:00:41 PM

Latest Report: Dec 18, 2014 at 10:30 PM


Visibility: N/A

Pressure: 29.86 "Hg

Humidity: 94%

Dew point: 77 °F

Location of KuchingLocation

Historic Weather in Kuching — Graph

°F

Kuching temperature yesterday

Maximum temperature yesterday: 86 °F (at 2:30 PM)
Minimum temperature yesterday: 75 °F (at 1:00 AM)
Average temperature yesterday: 78 °F

Past Weeks' High & Low Weather Summary

 TemperatureHumidityPressure
High93 °F (Dec 4, 1:00 PM)100% (Dec 4, 2:30 AM)29.98 "Hg (Dec 4, 2:30 AM)
Low73 °F (Dec 4, 2:30 AM)52% (Dec 12, 2:00 PM)29.71 "Hg (Dec 16, 3:30 PM)
Average80 °F84%29.84 "Hg
* Reported Dec 3 10:00 PM — Dec 18 10:00 PM, Kuching, Weather by CustomWeather, © 2014

Note: Actual official high and low records may vary slightly from our data, if they occured in-between our weather recording intervals... More about our weather records

Advertising

Kuching weather history for previous 24 hours

 ConditionsComfort  
Time TempWeatherWind HumidityBarometerVisibility
10:00 PM
Dec 18
79 °FLight rain. Partly cloudy.No wind94%29.86 "HgN/A
9:30 PM79 °FLight rain. Partly cloudy.No wind94%29.86 "HgN/A
9:00 PM79 °FPartly cloudy.1 mph94%29.86 "HgN/A
8:30 PM79 °FPartly cloudy.2 mph94%29.83 "HgN/A
8:00 PM79 °FPartly cloudy.3 mph94%29.83 "HgN/A
7:30 PM79 °FPartly cloudy.3 mph94%29.83 "HgN/A
7:00 PM81 °FPartly cloudy.3 mph89%29.80 "HgN/A
6:30 PM81 °FBroken clouds.5 mph84%29.80 "HgN/A
6:00 PM81 °FBroken clouds.3 mph84%29.80 "HgN/A
5:30 PM81 °FBroken clouds.2 mph84%29.77 "HgN/A
5:00 PM81 °FLight rain. Broken clouds.3 mph84%29.77 "HgN/A
4:30 PM81 °FLight rain. Broken clouds.2 mph84%29.77 "HgN/A
4:00 PM79 °FLight rain. Broken clouds.3 mph89%29.77 "HgN/A
3:30 PM79 °FLight rain. Partly sunny.6 mph89%29.80 "Hg4 mi
3:00 PM77 °FThunderstorms. Broken clouds.8 mph94%29.80 "Hg4 mi
2:30 PM79 °FThunderstorms. Broken clouds.7 mph89%29.80 "Hg5 mi
2:00 PM79 °FThunderstorms. Broken clouds.6 mph89%29.80 "Hg2 mi
1:30 PM82 °FRain showers. Broken clouds.8 mph79%29.83 "Hg4 mi
1:00 PM86 °FBroken clouds.7 mph70%29.83 "HgN/A
12:30 PM88 °FBroken clouds.3 mph66%29.86 "HgN/A
11:30 AM88 °FBroken clouds.2 mph66%29.86 "HgN/A
11:00 AM86 °FPartly sunny.6 mph75%29.89 "HgN/A
10:30 AM86 °FBroken clouds.3 mph70%29.89 "HgN/A
10:00 AM84 °FBroken clouds.1 mph79%29.89 "HgN/A
9:30 AM84 °FBroken clouds.2 mph79%29.89 "HgN/A
9:00 AM82 °FBroken clouds.3 mph84%29.89 "HgN/A
8:30 AM81 °FBroken clouds.2 mph89%29.89 "HgN/A
8:00 AM77 °FBroken clouds.1 mph94%29.89 "HgN/A
7:30 AM75 °FFog.3 mph100%29.86 "Hg1 mi
7:00 AM75 °FFog.1 mph94%29.86 "Hg1 mi
6:30 AM75 °FFog.1 mph94%29.86 "Hg2 mi
6:00 AM75 °FFog.1 mph94%29.83 "Hg2 mi
5:30 AM75 °FPartly cloudy.1 mph94%29.83 "Hg2 mi
5:00 AM75 °FPartly cloudy.No wind94%29.83 "Hg2 mi
4:30 AM75 °FPartly cloudy.No wind94%29.80 "Hg2 mi
4:00 AM75 °FPartly cloudy.2 mph94%29.80 "HgN/A
3:30 AM75 °FPartly cloudy.No wind94%29.80 "Hg4 mi
3:00 AM75 °FPartly cloudy.1 mph100%29.83 "Hg4 mi
2:30 AM77 °FLight rain. Partly cloudy.No wind94%29.83 "Hg3 mi
2:00 AM75 °FLight rain. Partly cloudy.1 mph100%29.83 "Hg3 mi
1:30 AM75 °FLight rain. Partly cloudy.2 mph100%29.86 "Hg2 mi
1:00 AM75 °FLight rain. Partly cloudy.3 mph100%29.86 "Hg2 mi
12:30 AM77 °FLight rain. Partly cloudy.1 mph94%29.89 "Hg4 mi
12:00 AM75 °FPartly cloudy.2 mph100%29.89 "Hg5 mi
11:30 PM
Dec 17
77 °FLight rain. Partly cloudy.1 mph94%29.89 "Hg4 mi
11:00 PM77 °FLight rain. Partly cloudy.1 mph89%29.89 "Hg4 mi
Weather by CustomWeather, © 2014

See weather overviewHow to use our weather pages